NOAA 20 (JPSS-1)

Last updated on Wed Sep 23 2026 00:03:10 GMT+0000 (Coordinated Universal Time)

1 43013U 17073A 26265.55394091 .00000028 00000+0 34473-4 0 9990 2 43013 98.7826 204.1703 0001260 40.9037 319.2233 14.19527070458288
UTC large
Height (km)
Speed (km/s)
/
Latitude / Longitude
Inclination (degrees)
Orbital Period (minutes)
Azimuth
Elevation
Range (km)
Doppler Factor

Next 0 passes for location: London (51.5072 / 0.1276)

No passes found over London.
NOAA 20 (JPSS-1)